Zurück zum Katalog

STARLINK-37367

AktivKommunikationVLEO
NORAD 68971·PAYLOAD·🇺🇸 United States

Gestartet May 1, 2026 von Cape Canaveral Space Force Station

Loading…

Nächste Überflüge (nächste 24 Stunden)

TLE

AktuellSource: CelesTrak SupGP

Epoche: Sep 15, 2026, 03:25 UTC

1 68971C 26099W   26258.14284722 -.00006449  00000+0 -19056-3 0  2586
2 68971  53.1559 100.6423 0001253  88.0342 309.2392 15.34389509    19

Verfolge STARLINK-37367 in Echtzeit mit AllMySat

Download on the App Store